Weather History for K19A - September, 2012

Change the Weather History Date:

Saturday, September 1, 2012

  Actual Average (KGVL) Record (KGVL)
Temperature  
Mean Temperature 78 °F 76 °F  
Max Temperature 87 °F 85 °F 100 °F (1957)
Min Temperature 68 °F 67 °F 50 °F (1936)
Cooling Degree Days 12 11  
Month to date cooling degree days 11  
Year to date cooling degree days 1337  
Growing Degree Days 28 (Base 50)    
Moisture  
Dew Point 64 °F    
Average Humidity 68    
Maximum Humidity 100    
Minimum Humidity 31    
Precipitation  
Precipitation 0.00 in 0.12 in 2.07 in (2004)
Month to date precipitation 0.12  
Year to date precipitation 36.37  
Sea Level Pressure  
Sea Level Pressure 30.16 in    
Wind  
Wind Speed 2 mph ()    
Max Wind Speed 8 mph    
Max Gust Speed -    
Visibility 8.8 miles    
Events      
T = Trace of Precipitation, MM = Missing Value Source: Averaged Metar Reports

Daily Weather History Graph

Daily Weather History Graph

Search for Another Location

Airport or City:

Trip Planner

Search our weather history database for the weather conditions in past years. The results will help you decide how hot, cold, wet, or windy it might be!

Date:

Astronomy

Sep. 01, 2012 Rise Set
Actual Time 7:08 AM EDT 7:59 PM EDT
Civil Twilight 6:42 AM EDT 8:25 PM EDT
Nautical Twilight 6:12 AM EDT 8:55 PM EDT
Astronomical Twilight 5:41 AM EDT 9:26 PM EDT
Moon 8:23 PM EDT (9/1) 8:08 AM EDT (9/1)
Length of Visible Light 13h 42m
Length of Day
12h 51m
Full, 99% of the Moon is Illuminated
Sep 1
Full
Sep 8
Last Quarter
Sep 15
New
Sep 22
First Quarter
Sep 29
Full

Hourly Weather History & Observations

Time (EDT) Temp. Heat Index Dew Point Humidity Pressure Visibility Wind Dir Wind Speed Gust Speed Precip Events Conditions
12:15 AM 71.6 °F - 71.6 °F 100% 30.19 in 10.0 mi Calm Calm - N/A   Clear
12:35 AM 71.6 °F - 71.6 °F 100% 30.19 in 10.0 mi Calm Calm - N/A   Clear
12:55 AM 71.6 °F - 71.6 °F 100% 30.19 in 7.0 mi Calm Calm - N/A   Clear
1:15 AM 69.8 °F - 69.8 °F 100% 30.19 in 7.0 mi Calm Calm - N/A   Clear
1:35 AM 69.8 °F - 69.8 °F 100% 30.19 in 7.0 mi Calm Calm - N/A   Clear
2:15 AM 69.8 °F - 69.8 °F 100% 30.18 in 7.0 mi Calm Calm - N/A   Clear
2:35 AM 69.8 °F - 69.8 °F 100% 30.18 in 7.0 mi Calm Calm - N/A   Clear
2:55 AM 69.8 °F - 69.8 °F 100% 30.18 in 7.0 mi Calm Calm - N/A   Clear
3:15 AM 69.8 °F - 69.8 °F 100% 30.17 in 7.0 mi Calm Calm - N/A   Clear
3:35 AM 69.8 °F - 69.8 °F 100% 30.18 in 7.0 mi Calm Calm - N/A   Clear
3:55 AM 69.8 °F - 69.8 °F 100% 30.17 in 7.0 mi Calm Calm - N/A   Clear
4:15 AM 69.8 °F - 69.8 °F 100% 30.17 in 7.0 mi Calm Calm - N/A   Clear
4:35 AM 69.8 °F - 69.8 °F 100% 30.17 in 5.0 mi Calm Calm - N/A   Clear
4:55 AM 69.8 °F - 69.8 °F 100% 30.17 in 5.0 mi Calm Calm - N/A   Clear
5:15 AM 69.8 °F - 69.8 °F 100% 30.17 in 5.0 mi Calm Calm - N/A   Clear
5:35 AM 69.8 °F - 69.8 °F 100% 30.18 in 5.0 mi Calm Calm - N/A   Clear
5:55 AM 69.8 °F - 69.8 °F 100% 30.18 in 5.0 mi Calm Calm - N/A   Clear
6:15 AM 69.8 °F - 69.8 °F 100% 30.18 in 7.0 mi Calm Calm - N/A   Clear
6:35 AM 69.8 °F - 69.8 °F 100% 30.18 in 5.0 mi Calm Calm - N/A   Clear
6:55 AM 68.0 °F - 68.0 °F 100% 30.19 in 5.0 mi Calm Calm - N/A   Clear
7:15 AM 68.0 °F - 68.0 °F 100% 30.19 in 4.0 mi Calm Calm - N/A   Clear
7:35 AM 68.0 °F - 68.0 °F 100% 30.19 in 5.0 mi Calm Calm - N/A   Clear
7:55 AM 69.8 °F - 69.8 °F 100% 30.20 in 7.0 mi Calm Calm - N/A   Clear
8:15 AM 71.6 °F - 71.6 °F 100% 30.20 in 7.0 mi Calm Calm - N/A   Clear
8:35 AM 73.4 °F - 71.6 °F 94% 30.21 in 10.0 mi Calm Calm - N/A   Clear
8:55 AM 73.4 °F - 71.6 °F 94% 30.21 in 10.0 mi WNW 4.6 mph - N/A   Clear
9:15 AM 77.0 °F - 69.8 °F 78% 30.21 in 10.0 mi WNW 5.8 mph - N/A   Clear
9:35 AM 77.0 °F - 69.8 °F 78% 30.21 in 10.0 mi West 4.6 mph - N/A   Clear
9:55 AM 78.8 °F - 64.4 °F 61% 30.21 in 10.0 mi WNW 4.6 mph - N/A   Clear
10:15 AM 78.8 °F - 64.4 °F 61% 30.21 in 10.0 mi West 5.8 mph - N/A   Clear
10:35 AM 78.8 °F - 64.4 °F 61% 30.22 in 10.0 mi NW 4.6 mph - N/A   Clear
10:55 AM 78.8 °F - 64.4 °F 61% 30.22 in 10.0 mi West 6.9 mph - N/A   Clear
11:15 AM 80.6 °F 82.3 °F 64.4 °F 58% 30.21 in 10.0 mi WNW 6.9 mph - N/A   Clear
11:35 AM 80.6 °F 81.8 °F 62.6 °F 54% 30.21 in 10.0 mi West 4.6 mph - N/A   Clear
11:55 AM 82.4 °F 83.4 °F 62.6 °F 51% 30.21 in 10.0 mi Calm Calm - N/A   Clear
12:15 PM 84.2 °F 84.4 °F 60.8 °F 45% 30.21 in 10.0 mi West 6.9 mph - N/A   Scattered Clouds
12:35 PM 84.2 °F 84.4 °F 60.8 °F 45% 30.20 in 10.0 mi West 6.9 mph - N/A   Scattered Clouds
12:55 PM 86.0 °F 85.4 °F 59.0 °F 40% 30.19 in 10.0 mi West 8.1 mph - N/A   Scattered Clouds
1:15 PM 86.0 °F 84.9 °F 57.2 °F 37% 30.18 in 10.0 mi West 6.9 mph - N/A   Clear
1:35 PM 86.0 °F 84.9 °F 57.2 °F 37% 30.18 in 10.0 mi WNW 8.1 mph - N/A   Mostly Cloudy
1:55 PM 86.0 °F 84.5 °F 55.4 °F 35% 30.17 in 10.0 mi WSW 4.6 mph - N/A   Scattered Clouds
2:15 PM 86.0 °F 84.5 °F 55.4 °F 35% 30.16 in 10.0 mi WNW 6.9 mph - N/A   Clear
2:35 PM 86.0 °F 84.5 °F 55.4 °F 35% 30.15 in 10.0 mi West 4.6 mph - N/A   Clear
2:55 PM 87.8 °F 86.5 °F 57.2 °F 35% 30.14 in 10.0 mi NW 6.9 mph - N/A   Scattered Clouds
3:15 PM 87.8 °F 87.1 °F 59.0 °F 38% 30.13 in 10.0 mi Calm Calm - N/A   Mostly Cloudy
3:35 PM 87.8 °F 86.1 °F 55.4 °F 33% 30.12 in 10.0 mi West 6.9 mph - N/A   Scattered Clouds
4:15 PM 87.8 °F 86.1 °F 55.4 °F 33% 30.11 in 10.0 mi West 6.9 mph - N/A   Clear
4:35 PM 87.8 °F 86.1 °F 55.4 °F 33% 30.09 in 10.0 mi SW 5.8 mph - N/A   Clear
4:55 PM 87.8 °F 86.1 °F 55.4 °F 33% 30.09 in 10.0 mi Calm Calm - N/A   Clear
5:15 PM 87.8 °F 85.7 °F 53.6 °F 31% 30.08 in 10.0 mi SW 5.8 mph - N/A   Clear
5:35 PM 87.8 °F 86.1 °F 55.4 °F 33% 30.08 in 10.0 mi SW 3.5 mph - N/A   Clear
5:55 PM 87.8 °F 86.1 °F 55.4 °F 33% 30.08 in 10.0 mi West 3.5 mph - N/A   Clear
6:15 PM 86.0 °F 84.9 °F 57.2 °F 37% 30.08 in 10.0 mi West 4.6 mph - N/A   Clear
6:35 PM 87.8 °F 86.1 °F 55.4 °F 33% 30.07 in 10.0 mi WSW 5.8 mph - N/A   Clear
6:55 PM 86.0 °F 84.9 °F 57.2 °F 37% 30.08 in 10.0 mi West 4.6 mph - N/A   Clear
7:15 PM 86.0 °F 84.9 °F 57.2 °F 37% 30.08 in 10.0 mi Calm Calm - N/A   Clear
7:35 PM 84.2 °F 83.5 °F 57.2 °F 40% 30.08 in 10.0 mi Calm Calm - N/A   Clear
7:55 PM 84.2 °F 83.8 °F 59.0 °F 42% 30.09 in 10.0 mi Calm Calm - N/A   Clear
8:15 PM 78.8 °F - 62.6 °F 57% 30.09 in 10.0 mi Calm Calm - N/A   Clear
8:35 PM 77.0 °F - 62.6 °F 61% 30.10 in 10.0 mi Calm Calm - N/A   Clear
8:55 PM 77.0 °F - 62.6 °F 61% 30.10 in 10.0 mi Calm Calm - N/A   Scattered Clouds
9:15 PM 77.0 °F - 62.6 °F 61% 30.10 in 10.0 mi Calm Calm - N/A   Scattered Clouds
9:35 PM 77.0 °F - 62.6 °F 61% 30.10 in 10.0 mi Calm Calm - N/A   Clear
9:55 PM 77.0 °F - 62.6 °F 61% 30.11 in 10.0 mi Calm Calm - N/A   Scattered Clouds
10:15 PM 77.0 °F - 62.6 °F 61% 30.11 in 10.0 mi Calm Calm - N/A   Clear
10:35 PM 75.2 °F - 62.6 °F 65% 30.11 in 10.0 mi Calm Calm - N/A   Clear
10:55 PM 77.0 °F - 62.6 °F 61% 30.11 in 10.0 mi Calm Calm - N/A   Clear
11:15 PM 75.2 °F - 62.6 °F 65% 30.11 in 10.0 mi Calm Calm - N/A   Clear
11:35 PM 77.0 °F - 62.6 °F 61% 30.11 in 10.0 mi Calm Calm - N/A   Clear